Regional Weather Roundup
Issued by NWS

Home | Current Version | Previous Version | Graphics & Text | Print | Product List | Glossary On
Versions: 1 2 3 4 5 6 7 8 9 10 11 12 13 14 15 16 17 18 19 20 21 22 23 24 25 26 27 28 29 30 31 32 33 34 35 36 37 38 39 40 41 42 43 44 45 46 47 48 49 50
000
ASUS43 KTOP 280008
RWRKS

WEATHER ROUNDUP FOR KANSAS
NATIONAL WEATHER SERVICE GOODLAND KS
700 PM CDT THU JUL 27 2017

NOTE:  "FAIR" INDICATES FEW OR NO CLOUDS BELOW 12,000 FEET WITH NO
SIGNIFICANT WEATHER AND/OR OBSTRUCTIONS TO VISIBILITY.

KSZ001>006-013>018-027>032-041>047-280100-
NORTHWEST KANSAS

CITY           SKY/WX    TMP DP  RH WIND       PRES   REMARKS
GOODLAND       MOSUNNY   83  64  52 SE10G16   30.08S
6HR MIN TEMP:  77; 6HR MAX TEMP:  85;

HAYS           PTSUNNY   85  66  53 E8        30.01F
HILL CITY      MOSUNNY   87  62  43 E12       30.02F
6HR MIN TEMP:  83; 6HR MAX TEMP:  90;

RUSSELL        CLOUDY    85  64  49 NE10      29.99F
6HR MIN TEMP:  83; 6HR MAX TEMP:  87;

$$

KSZ061>065-074>080-084>089-280100-
SOUTHWEST KANSAS

CITY           SKY/WX    TMP DP  RH WIND       PRES   REMARKS
DODGE CITY     CLOUDY    82  68  62 N5        30.03F
6HR MIN TEMP:  73; 6HR MAX TEMP:  83; 6HR PCP: TRACE;

ELKHART          N/A     82  58  43 NE8         N/A
GARDEN CITY    CLOUDY    83  66  56 E10       30.05F
6HR MIN TEMP:  74; 6HR MAX TEMP:  83;

GREAT BEND     CLOUDY    84  67  56 NE8       29.99F
LIBERAL        CLOUDY    81  69  67 N8        30.05F
PRATT          CLOUDY    81  66  60 NE8       29.98F
6HR MIN TEMP:  75; 6HR MAX TEMP:  84;

$$

KSZ066>073-081>083-090>101-280100-
SOUTHEAST KANSAS

CITY           SKY/WX    TMP DP  RH WIND       PRES   REMARKS
CHANUTE        CLOUDY    83  74  74 NE9       29.91S
6HR MIN TEMP:  83; 6HR MAX TEMP:  91;

COFFEYVILLE    RAIN      85  76  74 SE5       29.88S
6HR MIN TEMP:  85; 6HR MAX TEMP:  94; 6HR PCP:  0.01;

HUTCHINSON     CLOUDY    83  69  62 NE7       29.96R
6HR MIN TEMP:  81; 6HR MAX TEMP:  89;

MEDICINE LODGE   N/A     86  69  56 NE12      29.94F
NEWTON         CLOUDY    83  69  62 NE9       29.95F
PARSONS        CLOUDY    85  76  74 VRB6      29.90S
6HR MIN TEMP:  85; 6HR MAX TEMP:  94;

WICHITA INTL   PTSUNNY   84  72  67 NE13      29.93S
6HR MIN TEMP:  84; 6HR MAX TEMP:  88;

WICHITA JABRA  CLOUDY    82  73  74 NE8       29.94S
6HR MIN TEMP:  82; 6HR MAX TEMP:  87;

WICHITA MCCONL CLOUDY    83  70  65 NE10      29.94R
WINFIELD       PTSUNNY   86  73  65 NE14      29.91S
6HR MIN TEMP:  86; 6HR MAX TEMP:  95;

$$

KSZ007>012-019>026-033>040-048>060-102>105-280100-
NORTHEAST KANSAS

CITY           SKY/WX    TMP DP  RH WIND       PRES   REMARKS
CONCORDIA      MOSUNNY   83  65  54 NE9       29.98F
6HR MIN TEMP:  81; 6HR MAX TEMP:  86;

EMPORIA        CLOUDY    83  70  64 NE9       29.93F
6HR MIN TEMP:  79; 6HR MAX TEMP:  86; 6HR PCP: TRACE;

LAWRENCE       PTSUNNY   83  74  74 N5        29.93F
6HR MIN TEMP:  82; 6HR MAX TEMP:  87;

MANHATTAN      CLOUDY    86  67  52 NE13      29.93F
6HR MIN TEMP:  85; 6HR MAX TEMP:  90;

MARYSVILLE     MOSUNNY   81  68  65 N9        29.98S
OLATHE IND     CLOUDY    81  73  76 N9        29.94S
6HR MIN TEMP:  81; 6HR MAX TEMP:  85;

OLATHE EXE     CLOUDY    83  73  72 NE10      29.93F
6HR MIN TEMP:  78; 6HR MAX TEMP:  85;

SALINA         PTSUNNY   86  66  51 N12       29.96F
6HR MIN TEMP:  85; 6HR MAX TEMP:  90;

TOPEKA BILLARD MOSUNNY   85  74  69 NE9       29.93F
6HR MIN TEMP:  81; 6HR MAX TEMP:  87;

TOPEKA FORBES  MOSUNNY   85  73  67 NE12      29.94F
6HR MIN TEMP:  82; 6HR MAX TEMP:  87;

$$




USA.gov is the U.S. government's official web portal to all federal, state and local government web resources and services.